Location: Albert Place
(40.7505°N, 111.9230°W)
Time: 17:06:43
(UTC+00:00)

Cosmos 1570 Rocket - Pass Details

Date: 19 March 2026
Orbit: 759 x 783 km, 74.1° (Epoch: 18 April)

Event Time Altitude Azimuth Distance (km) Brightness Sun altitude
Rises 05:28:45 0° 344° (NNW) 3,236 7.9 -40.6°
Reaches altitude 10° 05:31:10 10° 348° (NNW) 2,309 7.0 -40.9°
Enters shadow 05:31:44 13° 349° (N) 2,091 6.7 -41.0°
